Location: Gradaro
(45.0833°N, 10.8833°E)
Time: 04:37:33
(UTC+00:00)

FENGYUN 1C DEB - Pass Details

Date: 23 June 2021
Orbit: 744 x 851 km, 99.4° (Epoch: 19 July)

Event Time Altitude Azimuth Distance (km) Brightness Sun altitude
Exits shadow 22:53:30 23° 116° (ESE) 1,702 ? -21.3°
Maximum altitude 22:56:11 37° 66° (ENE) 1,254 ? -21.3°
Drops below altitude 10° 23:01:01 10° 0° (N) 2,399 ? -21.4°
Sets 23:03:28 0° 353° (N) 3,317 ? -21.4°
